sat.trackr.live / text

‹ back to catalog

FORMOSAT 7-5

NORAD 44358 · 2019-036V

PAYLOAD ACTIVE UNKNOWN

§ Identity

Operator
Country
ROC
Launch date
2019-06-25
Launch site
AFETR
Launch vehicle
Mass (kg)
RCS (m²)

External: N2YO · Heavens-Above · Gunter

§ Orbital elements

Epoch: 2026-09-19T08:10:43.638240Z

Period
96.20 min
Inclination
23.9996°
Eccentricity
0.0000288
Mean motion
14.96820465 rev/d
Perigee alt
576.5 km
Apogee alt
576.9 km
Semi-major
6,954.9 km
B*
1.3616e-4
RAAN
353.4673°
Arg perigee
130.7620°
Mean anomaly
229.2906°
Rev number
39,647

§ Raw data

FORMOSAT 7-51 44358U 19036V   26262.34078285  .00001901  00000+0  13616-3 0  99982 44358  23.9996 353.4673 0000288 130.7620 229.2906 14.96820465396476

JSON: /api/v1/satellites/44358 · /tle

For live sub-satellite position, see the globe view (requires WebGL).

§ Visibility from observer

Set your observer location to see the next 7 days of passes ≥ 10°. The values pass through the URL so the page stays shareable.

No JS? Fill the form by hand. The geolocation button needs JavaScript.

§ Radio — SatNOGS DB

ModeDescriptionDownlinkUplink
CW Downlink 400.900 MHz

1 transmitter · refreshed weekly from db.satnogs.org